DW8219 Weather Reports


Display with metric or nautical units.
time (UTC)temp
F
wind
direction
speed
MPH
gust
MPH
rain 1hr
in
rain 24hr
in
rain mn
in
humidity
%
barometer
mb
20260510130404 55 149 1.0 5.0 0.00 0.23 0.00 95 1011.3
20260510125904 55 184 0.0 0.0 0.00 0.23 0.00 95 1011.3
20260510125404 55 184 0.0 0.0 0.00 0.23 0.00 95 1011.3
20260510124905 54 184 0.0 0.0 0.00 0.23 0.00 95 1011.4
20260510124405 54 184 0.0 0.0 0.00 0.23 0.00 95 1011.4
20260510123904 54 184 0.0 0.0 0.00 0.23 0.00 95 1011.3
20260510123405 54 184 0.0 0.0 0.00 0.23 0.00 95 1011.2
20260510122905 54 184 0.0 0.0 0.00 0.23 0.00 95 1011.1
20260510122404 54 184 0.0 0.0 0.00 0.23 0.00 96 1011.0
20260510121904 54 184 0.0 0.0 0.00 0.23 0.00 95 1010.9
20260510121404 54 184 0.0 0.0 0.00 0.23 0.00 96 1010.9
20260510120905 54 185 0.0 0.0 0.00 0.23 0.00 96 1010.9
20260510120404 54 185 0.0 0.0 0.00 0.23 0.00 96 1010.8
20260510115904 54 157 0.0 0.0 0.00 0.23 0.00 96 1010.8
20260510115404 53 157 0.0 0.0 0.00 0.23 0.00 96 1010.7
20260510114904 53 157 0.0 0.0 0.00 0.23 0.00 96 1010.7
20260510113904 53 135 0.0 0.0 0.00 0.23 0.00 96 1010.7
20260510113404 53 135 0.0 0.0 0.00 0.23 0.00 96 1010.7
20260510112904 53 135 0.0 0.0 0.00 0.23 0.00 96 1010.7
20260510112404 53 135 0.0 0.0 0.00 0.23 0.00 96 1010.4
20260510111906 53 134 0.0 0.0 0.00 0.23 0.00 96 1010.3
20260510111404 53 138 0.0 0.0 0.00 0.23 0.00 96 1010.3
20260510110904 52 130 0.0 0.0 0.00 0.23 0.00 96 1010.1
20260510110405 52 128 0.0 0.0 0.00 0.23 0.00 96 1010.1
20260510105905 52 128 0.0 0.0 0.00 0.23 0.00 96 1010.1
20260510104904 52 130 0.0 0.0 0.00 0.23 0.00 96 1010.2
20260510104404 52 130 0.0 0.0 0.00 0.23 0.00 96 1010.2
20260510103904 51 130 1.0 3.0 0.00 0.23 0.00 96 1010.1
20260510103404 51 128 0.0 0.0 0.00 0.23 0.00 96 1010.2
20260510102904 51 130 0.0 3.0 0.00 0.23 0.00 96 1010.1
20260510102404 51 96 0.0 0.0 0.00 0.23 0.00 96 1010.1
20260510101904 51 95 0.0 0.0 0.00 0.23 0.00 96 1010.3
20260510100904 51 95 0.0 0.0 0.00 0.23 0.00 96 1010.2
20260510095905 51 37 0.0 0.0 0.00 0.23 0.00 96 1010.3
20260510095405 51 34 0.0 0.0 0.00 0.23 0.00 96 1010.2
20260510094905 51 32 0.0 0.0 0.00 0.23 0.00 96 1010.3
20260510093904 51 31 0.0 0.0 0.00 0.23 0.00 96 1010.5
20260510093405 51 32 0.0 0.0 0.00 0.23 0.00 96 1010.4
20260510092905 51 344 0.0 0.0 0.00 0.23 0.00 96 1010.5
20260510092406 51 317 0.0 0.0 0.00 0.23 0.00 96 1010.6
20260510091406 52 318 0.0 0.0 0.00 0.23 0.00 96 1010.7
20260510090905 52 318 0.0 0.0 0.00 0.23 0.00 96 1010.7
20260510090405 52 318 0.0 0.0 0.00 0.23 0.00 96 1010.7
20260510085905 52 318 0.0 0.0 0.00 0.23 0.00 96 1010.8
20260510084905 52 317 0.0 0.0 0.00 0.23 0.00 96 1010.6
20260510084405 52 318 0.0 3.0 0.00 0.23 0.00 96 1010.6
20260510082904 52 327 0.0 2.0 0.00 0.23 0.00 96 1010.7
20260510082404 52 325 2.0 5.0 0.00 0.23 0.00 96 1010.4
20260510081904 52 349 0.0 2.0 0.00 0.23 0.00 96 1010.1
20260510081404 52 318 1.0 2.0 0.00 0.23 0.00 96 1010.1
20260510080904 52 129 0.0 0.0 0.00 0.23 0.00 96 1009.8
20260510075903 52 129 0.0 0.0 0.00 0.23 0.00 96 1009.7
20260510075404 52 129 0.0 0.0 0.00 0.23 0.00 96 1009.7
20260510074404 52 129 0.0 0.0 0.00 0.23 0.00 96 1009.7
20260510073904 52 129 0.0 0.0 0.00 0.23 0.00 96 1009.6
20260510072903 52 129 0.0 0.0 0.00 0.23 0.00 96 1009.6
20260510072404 52 129 0.0 0.0 0.00 0.23 0.00 96 1009.6
20260510071904 52 129 0.0 0.0 0.00 0.23 0.00 96 1009.6
20260510071405 52 129 0.0 0.0 0.00 0.23 0.00 96 1009.6
20260510070904 52 136 0.0 0.0 0.00 0.23 0.00 96 1009.8
20260510070404 51 136 0.0 0.0 0.00 0.23 0.00 96 1009.8
20260510065905 51 137 0.0 0.0 0.00 0.23 0.00 96 1009.9
20260510065404 51 137 0.0 0.0 0.00 0.23 0.00 96 1009.9
20260510064904 51 137 0.0 0.0 0.00 0.23 0.00 96 1009.9
20260510064404 51 137 0.0 0.0 0.00 0.23 0.00 96 1009.9
20260510063905 51 137 0.0 0.0 0.00 0.23 0.00 96 1009.8
20260510062905 51 137 0.0 0.0 0.00 0.23 0.00 96 1009.6
20260510062404 51 136 0.0 0.0 0.00 0.23 0.00 96 1009.4
20260510060904 51 136 0.0 0.0 0.00 0.23 0.00 96 1009.4
20260510060404 51 136 0.0 0.0 0.00 0.23 0.00 95 1009.4
20260510055904 50 136 0.0 0.0 0.00 0.23 0.00 96 1009.5
20260510055404 50 136 0.0 0.0 0.00 0.23 0.00 96 1009.4
20260510054904 50 136 0.0 0.0 0.00 0.23 0.00 96 1009.5
20260510054404 50 136 0.0 0.0 0.00 0.23 0.00 96 1009.5
20260510053904 50 136 0.0 0.0 0.00 0.23 0.00 96 1009.5
20260510052904 50 136 0.0 0.0 0.00 0.23 0.00 95 1009.5
20260510052404 49 136 0.0 0.0 0.00 0.23 0.00 96 1009.6
20260510051904 49 137 0.0 0.0 0.00 0.23 0.00 95 1009.6
20260510051405 49 137 0.0 0.0 0.00 0.23 0.00 95 1009.6
20260510050404 49 137 0.0 0.0 0.00 0.23 0.00 95 1009.8
20260510045904 49 137 0.0 0.0 0.00 0.23 0.00 95 1009.7
20260510045405 49 137 0.0 0.0 0.00 0.23 0.00 95 1009.7
20260510044906 49 137 0.0 0.0 0.00 0.23 0.00 95 1009.8
20260510043905 50 137 0.0 0.0 0.00 0.23 0.00 95 1009.8
20260510043404 50 137 0.0 0.0 0.00 0.23 0.00 95 1009.8
20260510042905 50 137 0.0 0.0 0.00 0.23 0.00 95 1009.8
20260510042405 50 137 0.0 0.0 0.00 0.23 0.00 95 1009.8
20260510041905 50 137 0.0 0.0 0.00 0.23 0.00 95 1009.7
20260510041404 50 137 0.0 0.0 0.00 0.23 0.00 95 1009.7
20260510035905 50 137 0.0 0.0 0.00 0.23 0.23 95 1009.5
20260510035405 50 137 0.0 0.0 0.00 0.23 0.23 95 1009.6
20260510034906 50 137 0.0 0.0 0.00 0.23 0.23 95 1009.5
20260510033906 50 137 0.0 0.0 0.00 0.23 0.23 95 1009.4
20260510033405 50 137 0.0 0.0 0.00 0.23 0.23 94 1009.4
20260510032905 50 137 0.0 0.0 0.00 0.23 0.23 95 1009.3
20260510032405 50 137 0.0 0.0 0.00 0.23 0.23 94 1009.4
20260510031904 50 137 0.0 0.0 0.00 0.23 0.23 95 1009.3
20260510031405 50 137 0.0 0.0 0.00 0.23 0.23 95 1009.4
20260510030905 50 137 0.0 0.0 0.00 0.23 0.23 95 1009.4
20260510030405 50 137 0.0 0.0 0.00 0.23 0.23 94 1009.4
20260510025905 50 137 0.0 0.0 0.00 0.23 0.23 94 1009.4
20260510025406 51 137 0.0 0.0 0.00 0.23 0.23 94 1009.3
20260510024905 51 137 0.0 0.0 0.00 0.23 0.23 94 1009.4
20260510024405 51 137 0.0 0.0 0.00 0.23 0.23 94 1009.5
20260510023904 51 137 0.0 0.0 0.00 0.23 0.23 94 1009.5
20260510023403 51 137 0.0 0.0 0.00 0.23 0.23 94 1009.5
20260510022904 51 137 0.0 0.0 0.00 0.23 0.23 94 1009.5
20260510021903 51 137 0.0 0.0 0.00 0.23 0.23 94 1009.5
20260510021404 51 137 0.0 0.0 0.00 0.23 0.23 94 1009.4
20260510020904 51 137 0.0 0.0 0.00 0.23 0.23 94 1009.4
20260510015903 51 137 0.0 0.0 0.00 0.23 0.23 94 1009.4
20260510015405 51 137 0.0 0.0 0.00 0.23 0.23 94 1009.4
20260510014404 51 137 0.0 0.0 0.00 0.23 0.23 94 1009.4
20260510013904 51 137 0.0 0.0 0.00 0.23 0.23 94 1009.5
20260510012903 52 137 0.0 0.0 0.00 0.23 0.23 93 1009.4
20260510012404 52 137 0.0 0.0 0.00 0.23 0.23 94 1009.2
20260510011905 52 137 0.0 0.0 0.00 0.23 0.23 93 1009.1
20260510010904 52 137 0.0 0.0 0.00 0.23 0.23 93 1009.0
20260510005904 52 137 0.0 0.0 0.00 0.23 0.23 93 1008.8
20260510005404 52 137 0.0 0.0 0.00 0.23 0.23 93 1008.8
20260510004904 52 137 0.0 0.0 0.00 0.23 0.23 93 1008.9
20260510004404 52 137 0.0 0.0 0.00 0.23 0.23 93 1008.9
20260510003905 53 137 0.0 0.0 0.00 0.23 0.23 93 1009.0
20260510003404 53 137 0.0 0.0 0.00 0.23 0.23 92 1008.9
20260510002904 53 137 0.0 0.0 0.00 0.23 0.23 92 1008.8
20260510002404 53 137 0.0 0.0 0.00 0.23 0.23 93 1008.7
20260510001904 53 137 0.0 0.0 0.00 0.23 0.23 92 1008.7
20260510000904 54 137 0.0 0.0 0.00 0.23 0.23 92 1008.7
20260510000404 54 137 0.0 0.0 0.00 0.23 0.23 92 1008.7
20260509235404 54 138 0.0 2.0 0.00 0.23 0.23 92 1008.4
20260509234905 54 132 1.0 3.0 0.00 0.23 0.23 92 1008.4
20260509233904 54 137 0.0 0.0 0.00 0.23 0.23 91 1008.4
20260509233404 54 138 0.0 0.0 0.00 0.23 0.23 91 1008.5
20260509232905 54 138 0.0 0.0 0.00 0.23 0.23 91 1008.6
20260509232404 55 138 0.0 0.0 0.00 0.23 0.23 91 1008.6
20260509231404 55 138 0.0 0.0 0.00 0.23 0.23 91 1008.6
20260509230905 55 138 0.0 0.0 0.00 0.23 0.23 91 1008.7
20260509230404 55 138 0.0 0.0 0.00 0.23 0.23 91 1008.9
20260509225904 55 139 0.0 0.0 0.01 0.23 0.23 92 1008.8
20260509225404 55 142 0.0 0.0 0.06 0.23 0.23 92 1008.9
20260509224904 55 142 0.0 0.0 0.08 0.23 0.23 92 1008.9
20260509224404 54 142 0.0 0.0 0.10 0.23 0.23 92 1009.0
20260509223905 54 143 0.0 0.0 0.12 0.23 0.23 91 1009.1
20260509223404 54 143 0.0 0.0 0.12 0.23 0.23 91 1009.0
20260509221905 54 114 0.0 0.0 0.14 0.23 0.23 91 1009.1
20260509221404 54 103 0.0 0.0 0.14 0.23 0.23 91 1009.1
20260509220404 54 103 0.0 0.0 0.14 0.23 0.23 91 1009.1
20260509215905 54 105 0.0 0.0 0.13 0.22 0.22 91 1009.2
20260509215405 54 170 0.0 0.0 0.09 0.17 0.17 90 1009.6
20260509214904 54 169 0.0 0.0 0.07 0.15 0.15 90 1009.4
20260509214404 54 170 0.0 0.0 0.05 0.13 0.13 89 1009.1
20260509213905 55 169 0.0 0.0 0.03 0.11 0.11 89 1009.3
20260509213405 55 169 0.0 0.0 0.03 0.11 0.11 89 1009.1
20260509212904 55 169 0.0 0.0 0.02 0.10 0.10 88 1009.1
20260509212405 55 180 0.0 0.0 0.02 0.10 0.10 87 1009.7
20260509211905 55 227 0.0 0.0 0.02 0.09 0.09 87 1009.3
20260509211404 55 227 0.0 0.0 0.02 0.09 0.09 87 1009.2
20260509210404 55 260 0.0 0.0 0.02 0.09 0.09 88 1008.9
20260509205905 55 261 0.0 0.0 0.02 0.09 0.09 88 1009.3
20260509205404 55 261 0.0 0.0 0.02 0.08 0.08 87 1009.3
20260509204904 55 261 0.0 0.0 0.02 0.08 0.08 86 1009.3
20260509203405 55 261 0.0 0.0 0.02 0.08 0.08 86 1009.6
20260509202904 56 261 0.0 0.0 0.02 0.08 0.08 86 1009.7
20260509202404 56 283 0.0 0.0 0.02 0.08 0.08 86 1009.7
20260509201904 56 283 1.0 7.0 0.01 0.07 0.07 85 1009.7
20260509201404 56 267 1.0 6.0 0.01 0.07 0.07 86 1009.8
20260509200904 56 319 0.0 6.0 0.01 0.07 0.07 86 1009.7
20260509195904 56 268 1.0 9.0 0.01 0.07 0.07 84 1009.7
20260509195403 57 315 0.0 0.0 0.01 0.06 0.06 84 1009.7
20260509194904 57 321 0.0 0.0 0.01 0.06 0.06 85 1009.6
20260509194404 57 261 0.0 0.0 0.01 0.06 0.06 86 1009.6
20260509193904 57 318 0.0 0.0 0.01 0.06 0.06 86 1009.4
20260509193404 57 319 0.0 0.0 0.02 0.06 0.06 87 1009.3
20260509192904 57 319 0.0 0.0 0.02 0.06 0.06 86 1009.2
20260509192404 57 323 0.0 0.0 0.02 0.06 0.06 87 1009.1
20260509191905 57 323 0.0 0.0 0.03 0.06 0.06 87 1009.1
20260509191405 57 292 0.0 0.0 0.03 0.06 0.06 87 1009.1
20260509190903 57 293 0.0 0.0 0.03 0.06 0.06 86 1009.3
20260509190404 57 293 0.0 0.0 0.04 0.06 0.06 84 1009.6
20260509185904 57 292 0.0 0.0 0.05 0.06 0.06 84 1009.8
20260509185404 57 292 0.0 0.0 0.05 0.05 0.05 84 1009.7
20260509183405 58 305 0.0 3.0 0.04 0.04 0.04 84 1009.9
20260509182904 58 287 1.0 8.0 0.04 0.04 0.04 84 1009.8
20260509182404 58 264 2.0 8.0 0.04 0.04 0.04 83 1009.8
20260509181904 58 274 5.0 13.0 0.03 0.03 0.03 82 1009.6
20260509181405 58 256 1.0 9.0 0.03 0.03 0.03 81 1009.3
20260509180404 58 255 9.0 17.0 0.02 0.02 0.02 75 1009.3
20260509175905 59 275 7.0 21.0 0.01 0.01 0.01 73 1009.6
20260509175404 61 268 10.0 21.0 0.00 0.00 0.00 70 1009.1
20260509174905 62 279 5.0 10.0 0.00 0.00 0.00 70 1009.1
20260509174404 62 257 5.0 12.0 0.00 0.00 0.00 70 1009.2
20260509173904 62 244 5.0 8.0 0.00 0.00 0.00 71 1009.0
20260509172905 63 255 7.0 12.0 0.00 0.00 0.00 67 1008.9
20260509172404 64 270 6.0 12.0 0.00 0.00 0.00 63 1008.9
20260509171904 65 236 4.0 9.0 0.00 0.00 0.00 62 1008.9
20260509171404 65 251 0.0 7.0 0.00 0.00 0.00 63 1009.0
20260509170905 66 250 6.0 10.0 0.00 0.00 0.00 62 1009.0
20260509165904 65 249 7.0 15.0 0.00 0.00 0.00 62 1009.1
20260509164905 64 226 4.0 10.0 0.00 0.00 0.00 62 1009.2
20260509163905 64 215 6.0 12.0 0.00 0.00 0.00 63 1009.4
20260509162904 64 219 2.0 7.0 0.00 0.00 0.00 62 1009.6
20260509161405 64 283 2.0 8.0 0.00 0.00 0.00 64 1009.8
20260509160904 63 196 5.0 8.0 0.00 0.00 0.00 65 1009.9
20260509160404 63 202 5.0 16.0 0.00 0.00 0.00 64 1010.1
20260509155905 63 238 7.0 13.0 0.00 0.00 0.00 64 1010.2
20260509155405 63 203 5.0 10.0 0.00 0.00 0.00 63 1010.2
20260509154405 64 252 6.0 12.0 0.00 0.00 0.00 65 1010.4
20260509153905 63 195 3.0 13.0 0.00 0.00 0.00 64 1010.4
20260509153406 63 227 8.0 13.0 0.00 0.00 0.00 65 1010.4
20260509152405 62 216 7.0 12.0 0.00 0.00 0.00 66 1010.3
20260509151906 62 196 2.0 8.0 0.00 0.00 0.00 66 1010.5
20260509151404 62 234 5.0 13.0 0.00 0.00 0.00 67 1010.5
20260509150404 61 177 1.0 6.0 0.00 0.00 0.00 68 1010.3
20260509145906 60 204 3.0 9.0 0.00 0.00 0.00 68 1010.2
20260509145404 60 219 4.0 12.0 0.00 0.00 0.00 69 1010.5
20260509144905 60 207 4.0 14.0 0.00 0.00 0.00 69 1010.5
20260509144405 60 209 2.0 10.0 0.00 0.00 0.00 70 1010.4
20260509143404 60 183 3.0 6.0 0.00 0.00 0.00 70 1010.5
20260509142904 59 195 2.0 8.0 0.00 0.00 0.00 70 1010.5
20260509141904 59 195 3.0 8.0 0.00 0.00 0.00 71 1010.3
20260509141404 59 168 3.0 7.0 0.00 0.00 0.00 72 1010.4
20260509140904 59 185 1.0 7.0 0.00 0.00 0.00 72 1010.5
20260509140403 59 186 3.0 7.0 0.00 0.00 0.00 72 1010.3
20260509135904 59 206 1.0 6.0 0.00 0.00 0.00 72 1010.4
20260509135404 59 236 4.0 7.0 0.00 0.00 0.00 73 1010.3
20260509134903 58 159 2.0 10.0 0.00 0.00 0.00 72 1010.4
20260509134404 59 161 2.0 7.0 0.00 0.00 0.00 73 1010.5
20260509133404 58 182 6.0 12.0 0.00 0.00 0.00 74 1010.4
20260509132904 58 238 2.0 6.0 0.00 0.00 0.00 75 1010.3
20260509132404 58 197 0.0 2.0 0.00 0.00 0.00 77 1010.4
20260509131404 57 193 2.0 3.0 0.00 0.00 0.00 77 1010.7
20260509130904 57 161 1.0 5.0 0.00 0.00 0.00 75 1010.6